GFSNGP_925_spd_159.txt.gz
Wind_Speed
22 24 23 24 26 24 23 23 19 22 21 21 13 12 9 9 13 14 12 11 9 5 6 5 3 1 2 1 1 1 3 6 8 9 9 10 11 12 12 13 14 17 19 20
24 22 23 26 26 26 24 24 26 24 29 21 17 16 16 17 15 15 15 13 11 10 9 6 6 5 2 2 1 2 4 5 7 9 10 10 11 12 12 12 13 14 19 19
20 20 21 16 13 19 23 22 22 21 22 14 10 14 14 17 18 17 15 14 12 11 10 8 6 4 3 2 2 4 5 6 9 9 10 12 12 12 12 13 14 15 18 20
14 16 18 13 11 15 13 16 14 19 22 20 9 11 12 15 17 16 16 15 13 13 11 9 7 5 4 4 4 5 7 7 8 10 12 11 12 13 12 13 14 14 17 20
12 13 16 20 17 13 11 15 12 17 18 11 10 10 8 13 15 15 15 16 15 15 13 10 8 6 6 6 6 7 7 8 10 11 11 11 12 12 12 12 13 14 16 18
13 15 14 13 5 1 3 13 7 11 5 10 17 9 8 14 15 16 18 18 17 16 14 11 8 7 8 7 7 6 8 8 9 10 10 10 11 11 11 11 12 12 13 16
16 13 12 14 4 3 7 5 8 9 3 10 12 6 19 18 17 19 18 19 18 16 13 12 8 9 9 7 6 6 6 7 8 8 9 9 9 10 10 10 11 12 12 13
11 17 16 3 3 8 4 3 5 4 5 10 10 15 19 19 17 20 20 20 17 15 14 13 11 10 9 7 7 6 7 8 7 7 7 8 9 9 10 10 10 11 12 12
5 3 2 4 4 4 3 2 0 4 9 14 14 16 18 17 17 18 19 18 16 16 15 13 12 10 9 8 7 7 7 6 5 6 6 7 8 9 9 10 10 11 12 13
8 7 9 9 5 4 2 2 5 8 12 14 16 17 17 16 15 18 18 15 16 16 15 14 13 11 10 10 8 6 4 3 3 4 5 6 6 7 8 10 10 11 12 14
13 15 11 9 9 7 5 5 8 11 13 14 16 16 16 15 15 19 19 17 16 15 15 14 13 12 10 9 8 6 4 3 1 1 2 3 4 6 5 7 8 8 10 11
7 8 7 7 6 9 10 11 13 14 15 14 15 16 15 14 18 19 19 18 18 17 16 15 13 12 10 8 7 6 5 3 1 1 1 2 2 2 6 5 7 8 9 9
9 3 5 4 4 8 10 11 13 14 13 15 17 18 18 16 18 18 19 19 19 18 17 15 13 12 10 8 6 5 4 3 2 1 2 3 3 4 5 7 8 8 10 13
1 3 3 4 2 7 9 12 15 15 16 16 18 18 17 16 18 18 18 19 18 18 17 15 13 13 13 11 8 8 6 7 4 4 4 4 5 5 6 7 8 6 9 9
5 4 4 3 6 9 13 14 14 13 13 13 17 17 17 17 17 17 17 17 18 17 17 16 15 14 13 12 10 9 7 7 6 5 6 6 6 7 7 8 8 9 8 6
4 4 4 7 9 11 13 14 14 13 13 15 17 17 17 16 16 16 17 18 19 19 17 17 15 14 15 13 11 9 8 8 8 8 8 8 8 8 8 9 9 9 9 9
5 5 6 8 10 12 13 12 12 13 15 16 16 17 17 16 16 16 17 17 15 16 17 18 16 17 16 14 11 10 9 10 10 9 10 9 9 9 9 9 9 9 9 4
1 2 4 6 9 11 11 11 13 16 14 16 16 16 15 15 14 15 15 15 12 12 13 14 16 17 18 14 13 11 11 11 11 11 10 9 10 8 9 9 10 10 10 7
2 2 2 4 10 12 12 13 13 14 14 16 18 13 13 13 11 14 15 14 13 14 16 15 16 17 17 18 13 12 12 12 11 11 10 8 8 10 10 10 10 10 11 11
1 2 2 6 8 11 9 11 16 16 17 19 16 13 12 11 12 14 15 16 15 12 11 15 17 16 15 14 16 13 12 12 12 12 11 11 10 11 10 9 10 10 10 10
3 4 5 7 9 11 14 16 18 14 15 17 15 14 13 13 13 14 13 13 15 16 14 13 14 14 14 14 14 13 12 12 12 12 12 11 11 10 10 10 9 9 10 10
3 3 4 7 8 8 9 12 12 14 13 12 11 12 12 12 12 13 13 11 8 15 14 14 14 15 13 15 14 12 12 11 11 11 11 11 10 10 10 10 10 10 10 11
4 5 6 7 7 8 8 9 10 11 11 11 12 12 13 11 12 12 11 14 13 13 11 13 13 14 16 15 13 12 11 11 11 11 10 9 10 10 10 10 10 10 11 11
6 6 6 5 6 7 6 6 7 7 9 9 10 12 11 10 8 10 8 6 11 16 15 11 13 15 16 13 13 12 11 11 10 9 10 9 9 9 9 9 10 11 11 12
5 5 5 4 4 4 4 5 6 5 5 6 6 8 11 10 9 5 10 9 10 12 11 12 13 15 15 13 13 12 11 10 10 9 9 8 8 8 9 10 10 12 13 14
3 3 3 2 4 2 2 3 3 4 4 5 6 6 6 7 8 8 7 9 10 10 11 11 13 14 14 14 13 12 11 10 9 8 9 9 9 9 10 11 12 14 15 16
3 2 2 2 3 2 2 1 1 1 1 2 4 4 5 6 7 8 9 8 9 9 10 11 10 12 13 13 13 12 11 10 9 8 8 9 9 10 10 11 10 9 10 9

GFSNGP_925_spd_162.txt.gz
Wind_Speed
20 21 21 23 24 23 21 21 19 19 20 16 10 14 10 14 14 15 15 14 12 9 11 9 8 7 5 2 2 3 2 3 6 5 6 6 7 7 9 8 10 20 18 17
24 20 21 25 25 24 24 23 23 22 24 13 11 8 11 15 15 14 12 12 11 11 13 13 10 8 7 6 4 3 4 3 6 5 6 7 7 9 11 12 12 18 22 15
23 16 17 16 11 18 21 21 19 17 15 11 2 9 14 14 15 15 15 12 13 13 14 12 10 8 8 6 5 5 4 5 5 6 7 9 10 11 11 12 13 15 18 19
14 14 17 10 16 17 18 17 13 15 14 13 13 12 15 15 16 15 15 16 14 15 15 13 12 9 8 7 7 7 6 6 6 7 8 10 10 11 12 11 13 14 15 18
9 11 17 23 20 16 8 14 17 14 13 10 4 10 13 17 17 17 16 16 16 17 16 14 13 11 10 9 9 8 7 7 7 7 8 9 10 10 10 11 12 12 14 16
9 10 14 12 4 10 16 10 8 10 11 9 10 7 7 12 15 15 20 19 19 19 17 15 12 11 13 11 11 9 6 6 7 7 8 9 9 9 10 10 11 11 12 15
12 11 11 14 20 5 6 2 7 8 9 6 6 2 9 12 15 20 20 20 21 19 16 14 15 13 15 12 11 9 8 5 6 7 9 8 8 10 10 10 10 11 12 13
13 14 15 13 12 5 2 4 5 5 6 12 11 14 16 15 15 17 19 21 20 18 17 16 14 15 16 14 11 9 8 8 7 9 8 8 8 9 9 9 9 10 10 11
7 4 9 13 2 7 4 2 2 2 9 13 13 13 14 14 14 16 19 20 19 18 18 16 14 15 16 14 12 11 10 9 8 9 8 7 8 8 8 8 9 9 10 10
9 7 10 3 4 5 2 2 3 6 13 12 12 14 14 13 13 15 17 16 18 19 18 17 16 14 12 13 12 11 9 7 7 6 5 5 4 6 6 8 7 9 9 12
6 11 11 4 8 4 7 3 5 9 12 12 14 14 14 14 13 18 18 16 19 18 17 17 16 15 16 15 14 11 9 7 6 3 4 0 2 5 3 7 8 6 7 7
8 8 7 8 1 3 6 7 8 11 12 14 15 14 14 13 18 20 20 18 18 17 17 17 16 16 15 15 14 12 10 8 7 4 2 1 2 5 5 6 7 7 8 10
11 4 9 2 4 5 7 8 10 11 12 14 15 16 18 15 19 20 20 20 20 20 19 19 18 17 15 13 12 11 9 9 5 4 2 2 3 4 6 8 9 10 8 9
1 3 4 5 1 3 5 8 13 13 14 15 16 17 17 16 20 19 19 20 20 20 22 19 18 20 18 16 14 14 11 8 7 5 5 4 5 6 7 8 9 11 10 8
6 6 4 4 2 5 6 8 9 9 9 10 15 15 16 15 16 16 18 19 20 20 19 19 17 19 20 16 12 12 9 6 7 6 6 6 6 7 8 9 10 10 10 8
6 4 3 2 4 5 8 9 9 9 8 9 12 13 15 15 15 16 18 19 20 19 20 20 21 21 20 18 14 11 11 10 9 7 8 9 8 9 9 10 9 10 10 6
4 4 5 4 5 7 9 8 9 10 9 11 12 15 16 16 16 16 17 17 17 18 21 22 20 20 19 19 16 11 10 11 11 9 9 10 10 9 10 10 9 10 10 8
4 3 5 4 6 6 7 6 8 12 9 14 16 17 16 17 13 16 17 18 14 13 18 20 22 20 19 19 18 14 12 11 12 11 10 11 9 10 7 10 10 10 9 9
5 4 5 3 4 6 6 7 10 14 15 17 20 15 15 16 17 19 20 19 17 16 17 18 19 21 21 21 18 16 13 11 12 11 11 11 9 9 12 11 9 7 8 9
8 10 10 6 6 4 7 9 15 16 17 20 19 17 14 14 17 19 19 18 17 14 14 20 20 20 19 18 20 14 13 13 13 13 12 11 11 9 9 9 9 10 8 7
5 6 6 6 7 11 14 17 19 16 15 17 17 14 14 14 15 17 14 10 14 16 14 16 20 18 17 16 16 17 17 14 14 13 12 11 11 12 9 7 8 8 8 9
4 3 3 5 7 7 8 10 12 14 13 12 11 12 13 13 14 15 13 11 7 14 18 17 18 18 17 17 18 17 14 14 13 12 11 11 11 10 9 8 7 8 9 9
5 5 5 6 6 7 6 6 7 9 11 12 13 14 14 11 13 10 8 14 16 16 15 16 17 17 20 16 19 17 15 14 13 12 11 10 8 7 6 7 7 8 10 11
6 7 6 5 7 7 5 4 6 7 8 8 10 11 11 10 10 11 10 7 11 17 17 14 16 18 17 20 18 15 15 14 13 12 10 9 9 8 7 9 10 10 11 12
4 4 4 3 3 4 6 5 5 5 5 5 6 7 11 10 9 6 12 11 10 14 15 16 15 17 18 18 15 16 14 13 10 9 9 9 9 9 9 9 10 10 12 15
7 6 5 5 6 7 7 3 3 7 6 5 6 7 6 7 8 8 9 9 9 10 12 12 13 16 17 15 14 13 12 11 10 11 11 10 8 9 9 9 10 12 10 0
5 5 4 5 7 7 6 6 5 7 3 2 3 5 5 5 6 8 8 8 10 10 9 11 14 15 13 12 13 13 13 12 11 10 10 9 10 10 10 9 4 3 8 11

GFSNGP_925_spd_165.txt.gz
Wind_Speed
14 11 11 17 19 19 16 16 10 18 17 7 10 8 8 10 13 14 14 13 10 8 10 12 12 12 12 11 8 8 7 8 6 6 8 8 6 6 6 9 15 15 9 22
16 12 15 21 19 16 17 19 19 18 20 6 3 6 10 15 16 14 12 13 12 12 15 14 13 16 13 11 10 9 6 9 7 8 7 8 8 9 8 8 12 15 15 17
15 5 10 13 6 10 16 14 11 13 9 4 7 9 12 14 16 17 15 15 15 13 16 18 16 16 19 14 12 11 11 10 9 9 9 11 10 10 10 11 10 12 16 16
7 4 11 7 8 10 13 13 5 4 6 7 14 6 13 13 15 14 15 15 14 17 18 19 19 18 17 16 14 13 14 11 10 10 11 10 10 10 10 9 10 11 14 15
3 5 15 15 18 8 3 5 10 5 4 2 7 10 6 11 9 12 14 17 20 21 23 24 20 19 17 17 16 14 14 11 10 10 10 10 10 9 8 8 10 10 12 13
3 4 4 4 1 5 2 5 4 2 3 8 4 3 3 11 12 11 19 19 23 26 25 23 21 19 20 20 20 16 14 13 10 10 11 10 9 11 8 7 6 9 11 13
7 5 7 5 3 5 3 4 5 5 4 6 5 4 10 12 12 19 21 26 26 24 24 20 20 22 22 20 19 15 12 13 13 11 8 8 8 7 10 8 8 8 10 13
4 5 8 3 4 2 3 7 9 3 3 6 7 12 13 12 15 19 22 25 25 24 22 20 18 19 19 17 17 15 12 12 12 11 8 7 7 6 5 8 7 9 10 11
8 6 5 3 3 4 6 5 4 5 5 11 13 13 14 13 14 17 23 22 23 24 22 18 16 19 22 19 17 16 14 13 12 10 10 9 7 5 5 4 6 7 8 12
5 5 4 13 10 3 3 4 5 6 9 11 12 14 13 12 12 15 20 21 24 26 23 20 19 20 20 20 18 16 14 13 11 10 10 8 6 4 7 9 6 7 8 8
2 12 14 4 7 10 8 7 5 11 11 10 13 12 14 12 11 17 19 22 29 26 25 24 21 20 20 21 20 18 14 13 11 8 7 6 4 2 3 5 7 6 7 8
5 7 8 5 5 2 8 7 7 11 8 11 12 13 12 10 18 20 17 22 24 27 26 25 22 21 22 21 20 17 16 15 14 11 8 6 3 2 2 3 3 4 4 5
3 4 3 4 2 9 8 8 7 10 9 13 13 17 17 14 20 21 19 22 23 26 28 25 23 24 24 21 20 21 18 16 17 11 10 11 8 4 1 3 5 7 7 6
5 1 4 4 3 1 2 7 14 12 17 17 17 19 19 17 22 21 19 23 23 25 25 25 24 25 25 24 23 21 19 18 15 14 12 10 7 5 5 6 8 9 8 9
4 0 3 2 2 3 2 6 7 8 8 9 21 18 20 18 19 20 25 25 24 26 25 26 23 26 25 25 23 20 18 16 15 13 10 8 8 9 9 8 10 10 10 6
6 4 5 1 3 4 4 6 8 7 7 6 12 17 21 25 24 25 27 28 27 23 28 28 26 26 25 24 21 18 18 14 13 12 11 12 10 8 9 10 10 7 8 8
7 3 2 2 2 1 3 4 6 6 7 10 14 22 24 24 21 22 26 27 29 29 28 28 26 24 24 23 21 18 17 17 15 15 15 14 12 13 11 10 10 8 8 6
4 3 5 4 6 5 3 5 9 13 8 17 19 22 23 21 14 21 22 21 22 22 24 22 23 23 23 22 23 20 16 16 16 17 15 13 14 13 11 11 9 10 6 5
13 9 10 8 5 6 6 5 12 18 18 19 20 18 22 22 21 22 23 21 20 19 21 23 23 23 21 21 22 23 21 19 14 18 18 16 16 15 14 11 9 9 8 8
8 11 11 10 12 4 7 10 17 16 18 20 20 18 16 18 23 24 25 25 25 23 20 20 21 22 22 22 22 23 23 22 20 16 16 13 13 13 12 12 12 10 10 9
6 7 6 6 8 11 9 14 19 17 16 22 22 20 20 18 20 21 19 15 18 17 16 18 22 24 23 22 22 24 24 21 19 18 18 16 13 14 15 14 12 10 9 9
6 4 5 6 6 8 9 9 14 16 15 13 13 15 16 15 16 17 17 19 12 15 19 20 21 21 21 20 21 21 21 24 23 16 15 14 12 11 11 10 9 8 8 8
6 6 6 7 7 6 7 8 9 11 12 13 13 14 16 16 17 15 11 18 17 14 17 18 18 18 19 18 20 21 20 17 15 16 14 12 10 9 8 8 8 8 8 9
7 6 5 5 7 7 6 4 5 5 6 7 9 10 13 12 14 13 11 8 8 20 20 17 16 16 16 20 18 22 20 19 16 15 14 12 11 10 9 9 9 9 8 11
4 4 5 5 1 6 6 5 5 4 5 5 5 8 10 9 8 10 13 12 9 11 15 15 14 15 17 18 20 19 17 15 15 16 15 13 12 10 9 8 9 10 9 11
9 8 8 11 11 11 5 3 2 6 4 5 6 4 3 7 8 6 6 9 10 9 10 12 13 14 15 17 17 15 13 15 15 13 11 10 9 10 9 9 8 10 10 7
11 10 7 11 11 11 10 11 11 10 8 6 5 5 6 3 3 5 6 7 8 8 8 9 11 13 14 14 13 14 14 15 13 11 11 9 7 9 9 9 10 9 6 4

GFSNGP_925_spd_168.txt.gz
Wind_Speed
4 5 6 13 16 17 12 8 6 18 14 11 10 10 9 6 9 13 15 15 12 10 9 15 16 13 12 11 12 12 10 7 9 8 8 6 8 9 11 14 14 13 18 19
5 5 10 18 15 16 18 18 13 12 21 9 7 3 5 10 13 15 16 14 13 12 17 15 15 15 13 15 14 12 10 8 9 7 6 8 11 10 10 11 13 12 14 18
4 4 6 10 8 16 17 11 8 13 15 7 5 7 9 10 15 17 16 15 14 14 18 18 17 18 16 16 15 14 13 11 12 11 13 13 13 12 11 10 10 12 13 17
3 2 11 5 5 11 8 8 10 8 8 5 7 6 6 6 12 11 14 14 13 18 18 19 20 21 20 17 17 18 16 14 13 14 14 13 12 12 12 11 9 11 12 13
2 5 12 12 13 4 6 7 3 6 4 5 3 2 2 5 10 14 15 17 20 21 21 23 25 23 24 20 20 21 17 15 15 15 14 12 11 12 12 11 10 9 9 10
3 3 4 6 3 4 4 4 3 4 5 4 3 2 4 9 9 11 17 19 20 22 24 27 27 28 28 24 22 21 18 15 16 15 14 13 11 12 11 9 10 7 7 8
8 6 6 8 10 2 2 6 3 3 5 4 5 5 3 10 7 16 17 20 25 26 25 31 29 29 28 28 25 22 19 17 16 14 13 11 11 12 11 9 9 8 6 5
6 6 8 4 1 5 5 4 7 4 2 4 4 5 9 10 11 13 19 23 25 25 28 29 28 31 31 28 24 22 19 17 15 13 12 10 10 9 8 8 8 8 5 4
7 6 3 1 4 4 4 5 6 3 4 5 6 5 8 10 13 15 21 21 24 29 27 27 29 31 30 27 24 22 20 17 16 13 12 12 12 10 9 8 7 6 3 3
2 3 4 8 9 8 6 11 13 5 6 7 7 9 10 10 11 13 20 21 23 27 24 24 24 25 26 26 24 22 20 21 20 17 16 13 11 10 10 9 7 6 5 5
4 10 8 9 7 7 8 7 8 6 7 9 11 8 10 10 11 16 19 20 27 25 24 26 24 22 24 26 26 24 22 21 19 18 16 14 10 9 7 5 4 5 4 4
5 7 4 7 6 5 8 10 8 9 7 7 10 12 9 10 15 19 18 21 22 24 25 25 25 25 26 27 28 27 24 22 20 19 17 16 13 11 9 5 4 3 3 2
4 4 7 9 7 5 5 6 7 10 10 13 10 16 16 8 16 17 20 23 23 26 25 26 25 26 26 27 28 27 26 24 23 20 18 17 16 13 9 7 7 7 7 7
14 6 5 5 5 5 7 9 11 11 14 17 18 17 17 15 15 18 20 24 26 26 26 26 26 26 25 26 27 26 22 19 19 18 20 17 15 12 11 10 10 8 8 11
4 6 5 4 5 5 3 3 6 7 9 9 17 18 20 16 16 18 23 24 25 25 26 27 27 26 24 25 25 24 24 22 20 19 17 15 14 13 12 12 13 12 12 8
4 3 1 3 4 5 3 4 6 6 8 6 12 17 21 23 22 23 24 26 24 20 26 28 27 26 26 26 25 24 20 20 19 18 17 15 14 14 15 15 15 14 11 9
4 5 5 4 4 2 2 2 6 7 6 8 14 20 20 20 19 20 24 27 27 24 25 26 28 25 26 27 27 25 22 21 20 19 18 17 18 20 18 16 16 12 11 9
5 5 5 3 5 4 4 5 7 11 7 17 19 22 21 18 14 20 24 25 24 24 23 21 22 25 27 28 26 24 23 21 21 20 19 21 21 20 18 17 15 13 11 10
7 6 7 7 8 3 3 4 9 14 15 18 20 18 23 25 23 23 23 23 22 22 25 23 21 23 24 27 26 25 24 22 21 21 21 22 21 19 18 19 17 14 11 11
6 8 9 8 10 6 1 3 11 14 15 18 18 16 16 18 19 21 23 24 26 24 20 21 23 24 23 23 24 24 24 25 25 22 18 20 22 21 21 20 16 15 14 13
6 6 6 6 7 10 7 6 15 14 14 16 19 18 20 18 19 22 21 15 20 19 13 14 19 22 24 24 23 24 25 25 27 26 22 20 17 16 16 18 17 15 15 13
5 5 6 5 6 8 10 6 6 11 12 12 10 12 13 13 15 17 18 18 13 14 15 15 18 20 21 21 22 24 24 24 24 21 19 16 16 15 14 15 16 15 13 11
7 6 6 7 6 5 8 8 7 7 8 9 10 12 13 13 15 13 7 11 15 14 14 16 17 16 17 18 19 20 20 19 18 18 21 18 13 14 14 13 13 12 10 8
6 7 6 5 5 6 5 6 5 4 2 3 3 5 7 7 8 11 11 8 6 9 16 15 14 14 14 17 18 18 18 17 16 15 12 13 15 15 12 11 10 8 8 8
6 8 10 8 6 6 5 4 4 3 3 2 0 2 4 5 4 6 8 9 9 9 10 13 13 13 14 15 15 17 17 16 17 17 16 17 17 14 10 9 8 8 10 11
10 9 12 14 12 12 10 6 4 2 3 2 1 1 1 4 6 6 6 7 9 9 8 8 12 12 12 13 15 15 15 15 15 15 17 15 11 10 10 8 8 9 8 8
12 11 12 12 14 13 13 12 12 11 10 9 6 3 4 1 3 5 5 5 5 6 6 5 7 10 10 9 10 12 11 11 11 13 11 8 7 6 8 10 10 9 9 7

GFSNGP_925_spd_171.txt.gz
Wind_Speed
4 5 4 9 13 6 7 8 8 15 16 4 9 11 12 9 7 11 14 15 14 11 13 20 20 18 14 15 17 17 16 14 14 14 11 11 11 11 10 10 12 15 15 15
4 6 6 13 10 10 13 14 15 20 24 9 12 7 6 9 7 10 12 14 15 13 17 19 19 22 21 19 18 17 14 13 13 11 10 11 13 12 10 10 10 12 15 15
7 2 4 10 7 11 9 6 7 12 17 9 8 8 8 10 9 11 11 15 16 15 20 21 23 23 22 23 20 17 14 12 13 11 12 15 15 15 11 9 8 9 12 12
2 3 8 2 3 6 7 10 10 10 8 11 10 5 7 6 8 9 12 14 15 19 21 20 21 23 23 22 20 18 16 15 15 16 16 17 17 16 13 10 8 8 8 9
3 6 10 13 13 5 5 9 12 7 8 5 2 3 6 4 5 7 11 13 19 22 22 22 26 26 25 23 21 20 20 19 18 19 18 18 17 15 15 13 10 8 6 7
3 4 5 6 4 4 1 6 5 4 5 3 4 1 5 3 6 7 15 19 21 22 22 26 27 29 27 25 25 25 22 20 20 19 19 18 17 16 15 14 12 8 6 4
8 7 6 7 9 1 2 6 3 2 4 3 4 5 1 6 5 12 16 20 22 23 24 28 30 30 28 28 30 26 23 22 21 21 19 18 18 17 15 14 12 9 6 3
4 6 8 4 2 6 5 4 5 4 4 6 6 0 4 6 8 10 14 19 20 21 24 29 31 31 31 31 29 26 24 24 23 21 20 19 17 17 15 14 13 10 7 3
6 4 3 4 4 6 5 7 6 3 3 5 5 5 6 6 8 9 16 17 21 24 25 29 31 34 34 31 30 27 25 24 22 20 19 17 17 17 16 14 13 11 7 4
2 1 11 12 7 7 8 10 9 6 6 7 5 6 6 8 8 8 14 17 21 25 23 24 30 32 32 32 30 28 26 23 21 20 18 16 14 14 14 14 12 11 9 6
5 8 8 14 10 9 9 6 7 6 6 7 7 7 8 8 9 11 15 17 24 23 23 27 30 29 30 33 30 28 26 25 23 21 18 16 13 11 10 9 7 8 8 6
5 7 5 5 6 8 8 8 7 7 3 4 7 9 8 8 13 17 17 19 20 21 23 27 29 28 27 30 29 28 25 24 25 22 19 16 14 13 11 8 8 7 7 6
5 3 6 12 12 7 7 8 8 6 6 7 6 10 12 5 15 18 19 20 21 25 26 28 29 28 27 28 29 28 26 23 22 20 20 18 17 15 14 12 11 11 11 10
6 6 9 7 6 3 5 8 9 6 10 10 11 13 14 12 13 18 20 25 25 25 25 25 27 28 27 27 28 28 26 23 22 21 20 19 19 18 16 15 14 13 13 14
12 8 9 5 5 6 4 3 3 5 6 6 15 13 16 12 12 16 21 23 23 23 24 23 24 25 25 26 27 27 26 24 20 20 21 21 20 19 18 17 16 14 13 13
4 4 5 4 7 6 6 6 5 5 6 6 8 13 17 17 16 18 20 22 21 18 24 25 25 23 24 26 26 26 26 23 22 21 21 21 20 19 19 18 17 17 16 15
3 5 4 5 5 5 5 3 4 4 4 6 9 14 16 14 14 15 19 22 23 23 24 24 26 23 24 26 26 25 25 24 23 23 23 22 21 21 20 19 18 17 17 15
4 4 4 3 5 6 6 5 3 5 6 12 14 17 16 16 11 18 21 20 19 19 19 18 19 21 24 25 26 26 25 25 23 23 23 23 22 21 20 19 20 20 19 15
6 5 5 5 6 6 6 3 2 7 6 12 16 17 21 21 21 19 19 19 18 17 20 17 16 17 21 24 25 26 25 24 23 22 22 22 21 21 21 20 20 20 18 16
6 7 9 7 9 8 6 5 3 4 8 13 12 12 12 14 15 16 19 21 23 20 16 14 18 19 20 21 24 25 25 24 24 24 22 21 20 21 21 21 21 20 20 19
6 6 6 6 7 11 10 6 1 5 8 10 13 14 15 15 16 16 15 12 18 19 13 9 16 19 20 21 21 23 24 23 23 23 23 21 19 16 16 17 18 20 21 20
5 5 6 8 7 9 14 10 7 6 5 5 4 5 7 8 10 13 12 12 6 7 12 11 12 13 15 16 19 21 22 22 21 21 21 22 20 18 19 18 17 18 19 20
6 7 8 8 8 6 11 14 12 9 8 5 4 5 5 5 8 8 3 4 6 7 8 10 10 11 11 13 15 16 18 19 19 18 18 18 18 15 15 16 15 16 16 13
6 6 5 6 9 11 7 11 11 10 9 8 7 5 3 3 1 3 3 3 2 2 4 7 9 9 10 11 12 13 14 13 13 12 12 10 10 14 15 15 12 11 9 9
7 10 11 10 10 8 9 8 10 10 9 8 7 5 3 3 3 4 3 2 4 4 4 3 5 7 9 9 10 11 12 12 12 12 13 14 13 14 16 13 11 9 10 11
10 10 13 16 13 14 13 13 11 12 11 9 7 5 4 3 4 5 6 5 5 4 4 4 4 6 7 9 10 11 11 10 10 11 12 13 14 16 13 10 11 11 12 11
12 11 12 12 13 14 14 13 13 12 12 10 8 7 3 3 5 7 7 6 6 4 2 1 1 3 5 5 4 4 5 6 7 8 9 10 8 8 9 12 13 12 11 10

GFSNGP_925_spd_174.txt.gz
Wind_Speed
15 15 5 6 7 8 7 6 7 21 18 7 7 9 10 10 9 6 10 14 16 15 16 20 24 25 23 23 23 23 19 20 20 19 17 16 14 12 11 10 12 11 11 10
7 9 9 12 7 7 11 15 13 21 23 14 15 8 8 11 9 9 10 13 13 14 20 23 23 23 24 24 25 24 21 21 21 19 18 16 14 12 11 10 10 9 11 11
14 6 7 9 7 12 6 4 7 12 12 8 8 8 9 12 8 10 10 11 15 17 23 25 26 25 23 26 26 24 23 22 21 19 17 18 16 13 11 10 8 8 9 10
5 4 11 5 3 5 6 7 11 14 13 12 9 7 8 7 7 7 8 12 14 19 23 25 24 24 25 27 28 26 24 22 21 19 19 20 18 16 13 10 7 5 6 6
6 10 13 8 9 4 6 7 10 11 9 5 2 4 7 1 2 3 8 10 18 22 24 24 26 28 30 25 28 27 24 22 22 21 21 21 21 19 15 12 10 6 4 3
3 4 7 3 3 2 3 9 6 3 2 2 2 4 5 6 2 3 8 15 18 23 25 26 28 31 28 28 29 28 26 24 22 23 22 22 20 19 17 13 11 8 4 2
10 6 5 6 6 4 4 7 3 1 3 2 4 5 2 2 2 5 11 17 21 24 26 28 33 32 28 32 31 28 25 24 23 22 21 19 19 18 16 16 13 10 6 3
3 4 6 5 2 6 4 3 4 5 5 6 7 6 2 4 6 7 9 17 20 19 18 24 30 33 31 32 30 28 26 25 23 22 20 19 19 17 17 17 15 12 8 5
5 3 4 4 7 8 2 5 8 4 6 6 8 5 6 6 7 6 12 15 18 18 19 23 30 33 33 31 29 29 26 25 24 22 20 18 19 19 18 16 15 13 11 8
1 2 8 14 13 8 5 8 10 7 7 6 9 6 6 6 7 6 13 15 20 21 19 21 29 30 30 30 31 29 27 25 23 22 20 18 17 17 17 17 16 15 13 11
5 13 12 14 13 7 8 7 8 7 7 8 7 5 6 7 8 9 13 15 22 21 21 25 29 27 28 30 32 30 27 25 22 20 19 18 17 17 17 15 15 14 13 10
6 8 6 6 5 8 11 11 9 6 7 4 7 7 7 7 11 15 15 18 18 20 22 26 28 27 27 30 31 30 26 25 24 22 19 18 17 17 15 13 13 11 9 9
11 4 5 6 10 14 9 9 8 6 7 6 4 7 7 5 12 15 17 19 20 23 24 27 28 28 28 29 31 30 28 27 26 25 24 22 21 20 20 16 13 13 12 11
6 2 7 5 6 6 5 7 8 7 7 6 6 9 11 8 12 15 18 22 22 24 24 25 26 28 27 28 30 30 28 27 27 27 27 27 25 23 21 19 19 16 15 16
14 11 12 11 7 7 4 3 6 7 4 3 5 9 13 8 10 14 18 20 20 20 21 22 24 26 26 27 28 28 28 27 25 24 25 24 24 22 22 21 20 18 14 14
5 6 5 5 7 6 5 6 5 6 3 3 4 5 10 10 11 14 17 20 20 18 23 23 24 23 24 26 27 26 26 26 24 23 23 24 23 23 22 22 22 20 18 17
3 5 3 3 4 6 6 6 4 4 1 2 4 5 5 9 10 12 17 19 20 18 19 21 23 20 19 23 26 25 26 25 24 24 23 23 24 25 25 23 22 20 19 16
4 4 3 3 4 5 7 7 5 4 2 8 9 11 10 9 7 14 16 16 14 14 14 14 15 15 18 22 24 24 23 24 25 26 25 25 26 25 24 23 21 20 19 18
6 4 4 4 5 5 6 6 8 7 1 8 15 13 15 16 15 13 14 15 14 14 17 14 13 13 16 20 23 24 23 23 24 25 24 24 23 23 23 22 21 20 19 18
5 7 7 6 7 8 6 10 10 4 3 5 6 8 9 10 10 13 16 19 19 11 9 10 14 15 15 17 20 23 23 24 23 23 23 23 22 22 21 21 20 21 20 19
6 6 7 7 7 12 13 10 6 8 7 4 2 2 2 5 8 11 12 8 4 12 8 5 10 14 16 16 17 20 22 22 22 22 22 22 22 20 19 18 18 19 20 20
4 5 6 7 6 11 16 16 14 13 11 10 9 6 6 6 6 7 4 4 1 1 7 9 8 10 12 14 16 19 20 21 21 21 20 19 19 20 20 19 20 20 19 18
6 6 6 8 7 7 17 19 17 16 16 14 12 11 10 6 4 3 1 1 1 2 3 5 6 7 8 11 13 15 16 17 18 18 17 17 17 18 19 18 16 15 15 15
4 7 10 13 14 14 10 15 16 16 15 14 13 12 11 10 9 4 3 2 2 2 1 3 5 7 8 10 11 11 12 12 13 13 13 12 13 13 15 15 12 13 11 8
10 12 13 13 12 9 11 11 17 16 14 14 12 10 10 10 9 8 7 4 1 2 2 2 4 6 8 10 10 10 10 10 10 10 10 11 11 11 11 11 13 11 10 10
11 10 12 15 13 15 15 16 12 15 15 13 15 10 8 9 10 10 10 7 5 4 2 1 1 3 5 6 7 8 8 9 9 9 10 11 11 11 11 10 10 11 10 10
13 12 12 13 14 15 14 14 14 13 13 13 11 11 9 9 9 8 7 6 6 5 3 2 2 1 1 1 2 2 2 2 3 4 5 7 8 8 8 10 11 11 11 11

GFSNGP_925_spd_177.txt.gz
Wind_Speed
11 18 15 18 22 20 16 15 12 23 20 17 10 8 9 9 10 7 10 13 15 15 15 21 22 23 22 20 20 20 21 19 18 18 16 14 14 13 11 11 12 11 10 10
14 18 16 15 20 22 20 19 18 22 26 14 13 13 12 12 10 10 10 12 15 16 21 26 28 27 24 22 21 20 20 21 21 20 18 16 14 13 11 10 11 11 11 10
17 15 14 12 19 18 20 20 16 19 20 8 11 12 11 13 9 10 7 10 15 18 23 28 31 29 27 24 22 23 22 22 23 22 20 18 15 14 12 10 9 10 11 10
12 11 13 8 6 10 11 13 12 16 15 16 14 14 11 9 11 10 8 7 11 15 21 26 28 27 25 24 24 25 24 24 24 23 21 19 17 15 13 10 8 7 7 6
3 4 12 13 12 10 12 18 12 16 14 7 4 4 2 2 2 6 5 6 11 17 20 25 28 27 25 24 25 25 25 25 24 23 21 20 18 16 13 11 8 7 6 5
3 6 6 1 4 2 2 10 2 2 1 2 1 5 4 2 2 1 3 8 13 16 20 25 27 28 27 26 27 27 26 25 24 22 21 21 19 17 14 12 10 7 6 4
10 8 7 5 9 3 8 3 3 1 5 3 4 4 2 2 2 2 6 11 14 18 19 22 27 29 26 26 27 27 24 22 22 21 20 20 18 17 15 14 11 9 7 5
4 4 8 6 5 5 4 9 9 10 9 7 8 8 6 3 3 7 9 14 16 17 17 21 25 27 24 26 26 31 30 27 26 23 19 19 18 16 15 14 12 10 8 6
6 3 2 5 7 13 9 11 10 11 13 8 10 8 4 3 5 6 10 13 14 16 17 18 25 28 25 26 30 30 29 28 27 25 23 21 20 19 15 14 13 12 10 8
2 7 10 10 12 12 7 9 10 15 14 10 12 9 7 5 7 7 11 13 15 16 16 17 21 23 23 25 29 30 30 28 26 26 24 22 21 20 16 16 14 13 11 10
6 9 11 14 10 13 12 9 12 15 13 11 8 9 8 7 8 9 12 13 15 15 15 17 20 20 20 26 28 25 23 23 21 20 23 23 21 22 22 20 18 14 14 12
6 8 9 9 7 3 6 14 12 9 8 6 7 9 6 7 9 14 15 14 14 15 16 18 20 20 23 26 28 25 22 21 20 19 18 19 20 20 21 19 17 17 15 14
12 9 11 9 8 9 8 8 7 7 7 8 5 6 7 5 10 12 14 16 17 19 18 23 23 23 25 27 26 25 24 21 19 19 18 18 17 16 15 18 16 16 15 13
10 5 10 8 7 7 6 9 9 8 7 6 6 5 6 7 10 14 16 19 17 17 20 25 27 29 29 30 31 31 28 27 25 21 19 18 18 17 15 16 16 15 18 17
16 12 15 12 10 10 6 4 7 5 5 6 3 3 7 6 8 13 12 15 15 15 16 18 20 25 28 29 30 31 28 22 24 22 21 21 19 17 16 16 15 13 13 17
4 4 6 5 4 2 3 4 5 5 5 5 2 2 5 6 6 9 12 16 18 18 19 21 25 26 27 28 27 26 27 25 26 21 19 19 18 18 17 17 16 15 15 16
6 6 3 1 2 3 4 5 5 5 2 1 3 6 6 5 5 6 10 14 17 16 20 22 23 22 23 26 27 22 22 20 25 21 18 19 19 18 18 17 17 17 17 17
4 6 4 2 3 5 7 6 7 6 4 3 7 9 9 6 4 7 9 12 11 11 13 15 16 17 20 23 24 20 19 18 19 18 18 17 18 17 17 17 17 16 15 16
8 5 5 5 5 5 5 6 7 8 5 4 8 6 6 7 7 8 12 12 11 10 12 13 13 14 17 19 20 19 17 17 16 17 18 19 18 16 16 16 16 16 15 15
7 8 7 5 6 7 6 7 6 4 6 10 6 1 2 2 2 8 12 9 8 5 4 13 14 14 14 16 19 18 17 17 16 16 16 16 16 16 16 17 16 15 15 16
5 5 5 6 7 11 11 10 7 10 9 9 7 5 5 3 3 4 5 4 3 8 4 7 12 13 14 15 17 17 17 17 17 16 15 16 15 15 14 14 15 15 15 15
6 6 6 7 7 10 15 14 13 14 14 13 10 8 8 7 6 6 4 2 1 1 7 7 8 10 12 13 15 16 16 16 16 15 14 14 13 13 13 14 14 14 13 13
7 8 9 8 8 8 15 18 17 16 16 16 14 12 10 9 8 3 3 3 2 2 2 3 4 6 7 10 12 13 14 14 15 15 14 14 15 14 13 12 13 13 13 12
9 11 10 9 10 12 10 12 15 17 17 16 16 14 11 9 11 9 6 4 4 3 2 1 3 4 6 8 9 10 11 11 12 12 12 13 12 12 11 11 10 10 10 10
12 12 11 11 12 9 10 10 13 13 13 13 14 14 14 15 10 9 8 7 3 2 2 3 4 5 7 8 9 9 9 10 10 10 10 10 10 11 10 9 9 9 9 10
12 11 11 12 11 11 10 11 12 11 10 11 12 10 10 11 10 9 8 8 7 6 3 2 0 1 3 4 5 6 6 6 7 7 7 7 8 8 8 7 7 9 12 12
12 11 10 11 11 11 11 11 10 10 10 9 9 11 10 10 9 8 7 6 7 5 3 3 2 1 1 2 3 3 3 3 4 4 4 4 5 6 7 8 10 13 12 11

GFSNGP_925_spd_180.txt.gz
Wind_Speed
15 16 13 17 21 19 19 21 20 23 23 31 14 14 10 10 13 13 13 13 15 16 16 20 23 26 25 23 22 22 21 19 17 16 15 15 14 13 12 11 10 9 8 7
16 18 18 20 22 25 25 22 23 27 31 25 21 18 17 16 15 14 13 12 14 16 17 25 28 30 28 26 24 24 22 20 19 18 18 16 16 14 13 11 11 10 9 8
19 20 18 17 23 24 25 24 24 24 25 20 17 15 16 16 14 12 12 9 10 14 17 23 28 31 30 28 26 25 23 22 22 21 19 18 17 16 14 13 12 10 10 8
15 16 16 17 10 14 18 22 18 19 21 20 20 17 15 10 11 8 7 7 8 10 16 21 25 28 28 28 27 26 24 23 23 23 21 20 19 18 16 14 13 11 10 8
8 13 16 18 12 12 16 17 14 17 18 11 7 7 10 1 4 6 7 5 5 10 14 19 23 27 29 28 27 26 25 25 25 24 23 22 21 19 17 16 13 12 10 9
4 6 11 2 4 8 7 14 8 8 8 13 8 7 4 1 6 6 4 3 4 9 12 17 22 27 28 27 27 26 26 25 25 24 23 23 22 20 19 16 14 12 11 9
11 9 9 3 4 5 10 6 11 11 11 12 11 9 12 8 7 5 3 3 5 9 12 16 22 26 24 25 25 26 24 24 24 24 23 22 22 20 19 17 15 13 12 10
9 14 14 4 1 5 8 13 13 13 9 12 13 13 11 8 7 5 5 7 9 10 11 16 22 24 23 23 24 30 26 24 23 23 22 22 22 21 20 18 16 14 13 10
6 6 1 3 9 9 11 12 14 13 14 14 15 15 13 9 7 7 8 9 10 10 12 16 21 23 22 22 28 29 29 26 25 25 22 21 23 22 21 19 17 15 14 13
5 9 13 15 14 14 10 11 11 8 11 16 19 15 14 10 6 7 10 12 13 13 14 16 20 21 21 22 22 25 26 26 27 28 26 24 20 21 20 19 18 17 16 15
11 17 12 15 14 9 10 11 11 13 17 16 15 12 14 10 8 7 11 13 15 16 16 16 18 20 20 20 23 24 25 23 22 22 22 22 21 22 22 22 22 19 19 17
9 10 9 15 12 11 10 10 12 10 10 9 8 10 10 9 7 8 10 13 15 15 15 16 18 19 20 21 25 26 25 24 23 22 22 21 20 18 23 21 23 21 19 18
16 15 14 17 14 14 16 13 11 10 9 10 10 9 10 8 6 8 10 12 14 15 15 17 19 20 20 22 25 26 24 24 23 22 22 22 22 21 19 20 22 21 21 19
16 16 18 17 13 12 10 12 12 11 9 8 9 10 9 8 6 10 12 14 14 14 15 17 19 21 25 25 25 26 24 23 22 23 21 20 20 18 17 17 17 16 21 20
17 15 17 14 14 13 11 9 7 7 5 6 6 7 8 8 8 9 8 10 12 13 14 16 18 18 21 23 22 22 22 20 20 19 20 20 19 19 19 18 17 15 14 17
11 8 7 8 10 5 4 5 6 6 5 4 5 5 5 5 3 4 6 9 12 13 14 15 16 17 24 24 20 19 20 19 20 19 19 20 20 20 19 19 18 18 18 17
16 14 13 11 6 3 3 3 5 5 5 3 2 2 2 3 4 4 3 4 4 7 11 15 15 18 22 25 23 17 17 19 20 19 19 19 20 20 20 19 19 19 19 19
9 4 2 1 1 3 4 4 5 5 4 3 3 3 4 4 3 5 4 4 4 5 7 10 13 14 17 21 21 16 15 16 17 20 19 19 19 19 19 19 19 18 17 17
4 4 4 4 4 4 5 5 5 6 4 2 8 5 3 2 3 5 9 9 8 6 7 9 11 13 16 18 18 15 14 15 16 16 18 17 18 18 18 18 18 17 17 17
5 5 5 5 5 5 4 4 3 2 4 6 6 5 4 2 3 5 6 3 3 1 4 11 12 13 12 14 18 14 14 14 15 15 15 16 17 17 17 17 17 17 17 17
5 5 5 5 6 6 6 6 6 7 7 8 8 6 7 6 6 6 6 2 2 4 1 7 9 8 10 11 15 13 12 13 13 14 14 15 15 15 16 16 16 16 17 17
5 5 6 6 8 10 10 10 9 10 11 10 9 8 8 8 7 9 7 5 3 1 4 3 6 8 9 13 11 12 11 12 12 12 13 14 14 14 15 15 15 15 15 16
7 7 7 7 9 10 11 13 12 12 13 12 11 11 11 9 7 3 3 5 3 2 2 2 4 6 8 9 8 9 10 11 11 11 12 12 12 13 13 13 13 13 13 13
10 9 9 9 9 10 9 10 11 11 12 12 13 12 8 7 9 8 6 5 4 3 1 1 2 3 5 6 6 7 9 9 10 10 10 11 10 10 10 10 10 11 11 12
12 11 10 9 9 8 9 8 9 10 10 11 11 12 12 12 9 8 7 7 7 5 3 4 3 3 4 5 6 6 7 7 7 7 8 8 8 8 8 8 9 9 9 8
11 11 11 11 9 8 8 8 9 8 7 8 9 9 9 9 8 7 7 7 7 6 5 4 3 2 1 1 2 3 3 3 4 5 5 5 6 6 7 7 6 6 8 9
12 10 10 10 10 10 9 9 8 8 8 7 6 7 8 8 8 7 7 6 6 6 4 4 4 4 3 2 2 2 2 2 2 2 2 2 2 4 6 7 7 8 9 11

GFSNGP_925_spd_183.txt.gz
Wind_Speed
22 25 23 19 18 21 22 23 21 22 26 23 24 22 17 20 19 16 15 14 11 13 14 18 19 24 26 24 24 23 22 21 20 19 18 17 16 16 15 14 13 12 12 10
21 23 23 23 24 24 24 24 25 27 26 26 24 20 20 25 17 16 18 15 14 14 15 20 25 26 28 27 25 25 24 22 21 21 20 19 18 17 16 15 14 13 12 11
21 22 22 17 22 21 23 24 23 19 24 22 24 18 21 16 15 13 15 13 11 11 14 21 25 28 30 30 27 28 25 24 24 22 21 20 19 19 18 17 15 14 12 11
16 19 21 17 19 13 14 17 18 20 20 18 18 19 18 16 13 9 7 7 8 7 10 17 21 25 28 29 28 29 27 26 25 24 22 22 22 20 19 18 16 15 13 12
13 15 18 23 20 10 9 14 17 16 16 13 16 18 10 19 7 6 7 7 6 4 7 13 18 23 27 28 27 27 27 26 26 25 24 24 23 22 21 19 17 15 14 13
13 9 14 14 2 2 8 15 11 12 11 12 12 8 4 4 13 10 6 5 4 3 6 12 16 21 25 25 25 25 25 25 25 25 25 25 24 23 21 19 17 15 14 13
13 12 10 5 2 3 10 9 10 11 11 11 7 5 14 13 11 8 7 4 3 5 8 11 15 20 20 26 23 24 22 22 24 25 25 24 24 23 22 20 17 16 14 13
8 12 14 7 3 5 7 10 13 15 14 13 13 12 13 15 11 7 6 5 6 6 7 10 14 17 21 21 23 27 24 24 24 25 24 24 24 23 22 20 19 18 16 14
7 5 4 6 9 11 12 14 14 11 11 9 14 15 15 14 13 7 7 6 8 9 9 11 15 16 19 21 26 29 28 24 27 26 23 23 24 23 22 21 19 18 18 16
7 9 13 12 12 13 13 14 12 13 15 13 15 15 15 13 12 8 6 7 8 9 10 12 15 18 19 21 23 30 27 24 28 28 24 22 21 22 21 20 18 18 18 18
14 17 17 14 11 10 10 10 11 14 13 16 16 13 13 12 10 9 6 8 10 10 12 13 16 19 20 23 27 27 25 23 24 23 24 22 17 21 22 20 20 19 19 19
12 16 15 11 14 14 13 13 14 11 13 14 13 11 11 10 10 9 7 9 12 13 13 15 17 19 21 24 28 26 26 26 24 24 24 22 21 16 22 22 23 22 20 22
18 20 17 16 18 17 16 15 15 15 12 12 12 10 10 10 11 6 7 9 12 15 16 16 18 19 22 24 27 27 26 24 23 23 23 23 22 22 19 21 22 25 25 22
18 17 19 18 17 14 11 12 12 13 15 12 10 11 12 10 11 8 9 9 10 11 11 16 19 22 24 24 24 25 23 22 21 22 19 20 20 19 19 18 19 20 26 27
17 17 17 15 16 15 12 10 10 11 10 7 7 7 9 9 9 9 7 6 7 10 11 14 17 17 20 20 20 20 19 16 17 17 15 17 17 18 19 18 17 16 16 17
14 15 15 13 13 12 9 8 8 10 8 6 6 5 7 8 8 6 3 2 4 8 10 12 12 15 19 19 18 17 18 16 18 16 16 17 18 18 19 19 19 19 19 18
15 17 16 14 14 14 8 5 7 7 9 8 3 5 7 6 5 4 2 2 4 5 6 8 10 13 18 20 16 14 16 16 17 15 16 17 18 19 19 18 18 18 19 20
12 13 8 6 7 3 6 3 6 7 6 9 6 4 5 4 3 1 2 3 4 5 5 6 9 10 13 18 17 11 12 13 16 17 16 16 17 17 18 19 20 19 19 19
7 4 5 4 5 4 4 5 6 7 6 3 6 5 4 3 1 2 3 3 3 3 3 5 7 9 11 14 17 13 12 12 13 14 15 17 17 18 18 18 18 18 18 18
3 4 5 6 7 7 4 5 3 4 6 5 6 5 5 5 3 5 5 5 5 4 2 4 5 6 7 9 15 11 11 11 12 13 12 15 15 15 17 18 18 18 18 18
3 4 4 5 6 8 8 7 7 8 9 10 9 8 8 7 6 5 4 4 5 2 5 3 5 4 5 5 9 8 8 9 10 11 12 14 14 15 15 17 17 18 16 17
3 3 4 6 7 9 10 11 11 12 12 13 13 10 8 8 9 11 11 8 5 4 2 2 1 3 3 6 4 7 7 9 10 12 12 13 14 15 16 16 16 16 17 17
5 6 5 6 8 9 11 11 13 13 13 12 12 12 13 11 12 10 5 10 7 6 4 3 2 3 6 7 6 8 9 10 11 12 13 13 13 14 14 14 14 15 14 14
8 7 7 6 7 9 8 10 11 12 13 14 15 16 14 9 11 11 8 8 9 8 6 5 5 3 2 4 6 7 9 10 11 12 11 12 12 12 12 12 11 12 12 12
9 8 7 7 8 7 8 8 9 10 11 11 11 12 12 11 11 8 9 9 10 9 7 8 7 5 2 4 5 6 6 7 7 7 8 8 8 8 8 8 8 8 9 10
7 8 9 9 8 7 7 7 8 8 7 7 9 10 10 10 10 9 9 9 9 8 7 7 7 6 4 4 3 3 3 2 3 4 4 4 5 5 5 6 6 5 10 11
9 9 10 9 9 9 9 9 8 8 8 7 7 8 9 10 10 10 10 10 9 8 7 6 6 7 6 5 5 6 5 5 4 5 2 2 4 7 10 10 9 6 5 6

GFSNGP_925_spd_186.txt.gz
Wind_Speed
22 25 24 23 24 24 19 19 20 15 20 18 16 15 13 14 12 15 15 18 5 11 10 12 20 22 22 24 25 26 24 23 23 22 21 21 20 20 20 19 18 17 16 14
21 22 21 23 27 25 24 21 21 19 20 15 16 19 17 16 14 14 14 13 18 15 15 17 20 22 26 25 26 27 25 24 24 23 22 23 22 22 21 20 19 18 17 18
13 19 19 17 18 21 22 21 20 16 15 15 15 16 17 16 17 14 7 19 12 3 14 18 24 25 25 25 25 29 26 25 26 25 24 23 22 22 22 22 21 20 18 17
13 16 17 15 16 21 21 22 16 16 14 12 13 14 13 16 18 18 20 12 8 6 4 17 20 24 23 25 26 28 26 25 26 26 24 24 24 24 24 23 22 19 17 15
13 14 18 28 21 19 11 14 17 10 11 13 13 11 8 12 14 14 14 17 6 9 6 9 17 24 25 25 26 27 26 26 26 27 25 25 24 24 23 23 21 20 19 18
12 13 16 14 2 3 3 10 8 7 8 10 11 8 7 6 6 18 22 7 5 1 0 8 13 22 24 24 26 27 26 25 25 27 24 25 23 25 24 23 22 21 21 20
12 11 5 13 4 9 6 2 6 9 10 10 7 9 5 8 11 13 21 4 2 2 6 9 13 18 24 25 25 29 27 25 26 25 22 22 24 25 24 23 22 21 20 19
5 8 11 10 2 7 4 5 9 10 9 8 6 8 11 13 13 12 6 5 4 4 5 10 12 12 21 23 28 30 25 24 25 24 23 25 25 25 24 23 22 22 21 19
6 4 5 4 11 18 11 11 9 9 9 8 9 9 9 12 13 12 4 9 6 7 9 10 10 10 15 23 29 32 30 28 25 26 25 24 28 25 25 23 22 23 24 21
12 5 13 13 14 13 11 9 13 11 11 11 11 12 15 11 11 8 6 8 5 6 10 11 10 12 14 22 28 33 30 27 27 26 28 22 28 27 25 25 24 23 23 22
7 14 13 18 9 12 17 10 10 11 12 10 10 10 5 12 14 9 3 6 7 5 10 12 11 14 14 20 21 23 25 24 23 24 25 18 22 24 27 25 23 24 24 23
13 12 14 15 12 16 13 22 14 11 11 11 8 12 11 8 7 10 7 7 8 7 9 11 13 16 17 20 21 23 22 21 20 21 22 19 18 17 20 23 22 19 23 25
8 18 15 15 14 18 15 15 14 10 10 12 7 8 7 7 10 11 10 9 5 9 12 12 14 16 22 22 23 23 23 22 21 22 22 20 19 17 15 18 18 18 19 21
21 16 17 18 15 14 15 14 9 11 11 9 10 8 8 6 11 12 10 7 6 8 15 16 18 18 20 22 24 23 23 23 23 24 23 23 21 19 18 18 17 19 23 23
15 15 15 13 14 14 14 13 12 8 6 5 5 9 4 7 8 11 12 10 4 4 12 10 12 15 21 23 25 25 23 21 23 25 23 24 22 21 20 18 19 19 19 25
14 14 15 13 15 15 13 12 8 7 6 5 4 3 7 9 9 9 11 15 10 9 3 10 10 11 15 17 19 19 20 19 21 22 18 19 19 19 18 18 18 19 20 22
10 10 12 16 15 14 13 6 2 7 4 8 7 9 9 7 7 9 10 10 8 8 7 7 10 11 14 16 15 14 15 17 20 18 18 18 18 19 19 19 20 20 21 21
8 8 9 12 10 9 8 9 7 7 9 9 6 9 9 5 5 6 6 6 7 8 6 3 5 7 11 17 17 13 16 15 19 17 15 19 20 20 19 19 19 19 19 19
9 9 8 9 11 9 9 8 9 7 7 5 4 8 7 5 5 6 6 6 5 3 2 3 3 5 9 14 18 10 12 15 17 17 17 15 14 17 17 17 17 18 18 19
4 5 7 7 8 7 4 7 6 9 9 9 10 9 8 8 6 7 7 9 7 5 2 2 4 3 4 7 13 11 10 11 11 11 15 15 14 15 17 17 15 16 17 18
4 5 4 4 6 8 8 9 10 11 12 14 11 9 9 10 9 6 2 7 7 8 7 6 4 3 4 4 9 9 8 10 8 10 8 11 13 11 12 14 15 16 17 18
3 3 4 5 7 8 12 13 13 14 14 14 14 9 11 10 12 17 17 11 8 6 5 6 3 2 3 3 3 5 4 6 8 10 11 12 13 13 14 15 16 17 18 19
5 5 5 6 7 9 10 12 13 13 13 14 14 14 15 16 16 11 7 13 10 11 9 8 7 3 0 2 2 4 6 7 9 10 11 12 13 14 15 15 16 17 16 16
5 7 6 6 8 8 7 10 13 14 15 17 19 18 16 10 15 13 11 10 12 10 10 11 8 7 4 4 4 5 6 8 9 10 11 12 13 13 13 13 13 13 13 14
7 7 7 7 6 5 9 10 12 12 13 14 14 14 14 14 13 11 11 11 12 11 10 11 11 10 8 6 6 6 6 6 5 5 6 7 7 7 8 8 8 7 8 8
7 7 9 10 7 6 7 10 9 9 9 11 11 12 12 12 12 12 11 11 11 10 10 10 11 10 9 9 8 7 7 6 7 5 4 5 5 5 5 4 3 10 14 15
10 9 8 8 9 10 11 10 11 10 11 10 11 13 13 13 13 12 14 14 12 13 5 7 9 10 10 11 11 11 13 12 10 11 12 12 10 10 11 12 10 9 9 7

GFSNGP_925_spd_192.txt.gz
Wind_Speed
15 12 10 12 20 11 13 16 16 17 13 11 9 5 6 2 1 4 8 10 5 3 6 13 16 21 27 27 32 34 36 35 36 36 33 30 32 30 28 27 27 26 25 23
11 10 11 16 18 14 18 20 18 15 18 5 3 5 5 4 2 4 2 2 4 6 7 7 18 24 22 27 29 33 32 32 34 35 35 33 31 29 29 30 28 26 24 24
6 6 8 12 10 13 14 17 11 12 15 2 3 3 2 1 1 2 4 4 5 6 6 12 17 22 20 19 25 29 27 29 33 35 36 35 31 32 31 30 29 28 26 25
3 2 12 12 7 9 13 16 7 11 5 6 5 3 4 5 4 5 4 5 6 8 13 15 10 18 21 25 29 27 26 28 30 32 32 33 33 32 32 31 30 26 29 25
6 12 15 22 13 15 9 15 4 4 4 6 7 4 3 4 5 6 5 6 10 19 19 20 13 11 19 22 24 23 24 27 29 31 30 31 30 29 30 31 30 31 26 23
5 6 10 2 4 3 3 8 4 5 8 14 1 1 5 5 4 7 9 16 13 17 14 12 12 18 20 20 22 24 25 27 29 30 32 34 31 29 30 29 31 24 25 24
10 8 6 6 8 4 4 4 4 6 10 11 5 6 4 3 5 6 10 16 17 7 12 13 15 19 22 21 24 27 24 25 27 29 31 30 29 27 27 27 27 26 26 23
3 6 9 2 2 3 1 8 12 8 10 6 7 2 2 2 4 7 8 14 12 12 11 11 17 20 21 23 26 25 26 27 27 28 25 27 28 26 24 26 26 26 23 22
2 4 8 16 6 7 9 13 12 7 8 8 5 5 6 4 3 5 6 12 10 6 8 13 17 19 21 25 22 25 28 29 29 30 26 28 30 28 25 25 22 21 20 22
2 3 10 9 10 9 5 5 9 10 7 6 5 7 7 6 5 2 5 5 14 11 8 12 13 14 16 18 22 28 30 29 31 31 29 30 28 28 27 25 22 21 22 24
7 12 12 12 9 6 9 8 10 10 5 7 6 6 7 5 6 5 7 15 11 10 13 15 13 11 8 10 21 25 26 28 29 28 30 28 28 29 28 28 30 27 28 32
10 9 5 14 6 13 11 9 11 9 5 5 7 6 5 4 1 3 5 6 6 8 13 15 15 12 10 10 18 23 21 22 25 24 24 24 24 20 25 25 26 30 32 32
18 12 9 14 13 17 16 16 12 9 9 8 4 3 3 4 5 9 13 13 5 12 15 17 16 14 12 11 17 21 19 20 21 22 23 23 22 21 18 20 27 27 33 30
20 17 15 17 10 12 16 13 9 7 5 5 8 9 10 7 10 10 10 11 10 4 12 17 16 16 14 15 16 19 22 21 22 22 23 23 23 22 22 20 17 19 25 26
17 13 15 15 10 5 6 5 4 4 6 6 9 9 10 6 5 7 6 5 7 7 4 4 7 10 14 16 17 17 19 20 22 22 23 23 22 22 23 22 22 23 21 20
12 11 6 4 3 4 5 6 2 5 6 6 7 8 13 16 13 9 9 11 6 7 8 4 4 4 6 13 16 13 15 18 20 20 20 21 22 21 21 21 20 22 23 23
6 4 4 2 4 6 6 6 5 4 2 5 7 12 15 15 14 10 9 10 9 8 9 10 8 5 1 7 12 14 13 15 16 18 19 20 19 18 18 19 21 23 24 23
5 3 3 3 4 4 4 5 5 4 4 5 5 11 11 9 7 9 12 11 11 13 12 9 6 3 2 1 6 11 13 15 16 18 17 17 18 18 18 19 20 20 21 20
6 4 3 3 4 4 4 4 5 4 1 5 5 4 9 12 14 12 11 12 10 7 9 8 8 7 5 5 4 4 6 9 10 11 11 12 12 14 15 17 19 21 21 22
2 2 3 2 2 2 2 2 3 6 6 11 11 9 9 11 14 17 17 14 10 5 6 8 8 8 6 3 4 5 5 4 5 7 8 10 10 11 11 14 17 19 21 21
4 2 1 1 3 5 6 6 9 8 11 13 12 10 11 15 16 14 12 7 10 10 10 11 7 7 8 7 4 6 2 2 2 2 3 6 9 11 12 12 12 13 15 17
2 2 2 2 3 3 7 10 12 12 12 15 16 16 17 16 19 19 17 12 12 10 10 10 10 8 7 9 8 6 7 5 2 2 4 6 8 9 11 13 14 15 15 16
3 5 4 5 4 5 7 10 12 14 15 14 15 16 15 13 11 10 7 12 13 13 13 12 10 9 8 7 8 7 5 5 6 6 6 7 8 9 11 12 14 16 16 16
5 7 6 8 11 8 5 9 13 16 17 17 16 17 17 15 16 16 14 12 12 13 13 12 12 11 11 11 10 11 10 9 8 7 6 5 6 7 8 8 8 9 10 11
9 9 9 11 6 4 9 12 13 14 16 15 17 18 17 15 15 14 13 11 9 10 13 10 9 11 13 13 14 14 14 13 11 8 8 7 6 4 5 5 6 6 7 7
7 5 6 9 9 11 12 12 9 10 13 13 15 17 17 15 14 13 12 11 11 15 15 14 14 14 15 14 14 13 13 12 12 13 12 12 10 9 7 4 3 3 2 1
9 9 9 9 10 12 13 13 13 11 14 14 15 15 15 14 13 14 14 17 18 18 17 16 15 14 13 12 12 12 12 12 13 11 12 11 11 10 9 7 6 5 5 6

GFSNGP_925_spd_195.txt.gz
Wind_Speed
17 17 17 20 19 5 10 15 12 17 20 20 14 8 6 5 5 3 2 3 5 5 6 9 12 22 27 26 23 30 31 30 33 35 33 32 33 34 31 24 26 20 24 23
21 14 15 19 17 8 12 15 15 18 21 20 8 3 4 5 5 5 6 6 7 7 7 9 15 18 21 27 31 31 27 28 31 34 33 33 36 34 30 30 23 26 25 24
19 6 9 12 12 13 12 14 11 13 15 8 7 8 7 6 6 7 8 8 7 8 9 16 19 17 21 24 29 30 29 27 28 33 34 36 35 33 33 29 29 28 27 28
11 6 10 6 3 5 10 16 9 12 12 8 7 2 4 8 7 8 7 7 8 7 13 14 12 15 11 15 23 24 25 27 27 33 30 31 32 33 32 30 31 31 31 28
6 5 5 12 6 3 4 20 4 5 1 3 4 2 6 8 9 9 7 7 12 17 19 17 16 21 10 15 20 22 21 23 26 29 27 27 25 23 27 29 30 33 31 21
3 3 4 4 1 7 3 10 3 3 4 3 5 1 7 4 6 7 7 11 13 20 19 13 13 8 11 16 20 20 23 25 26 27 29 31 32 29 27 29 32 31 25 21
10 8 6 8 13 7 5 4 2 3 7 6 3 5 4 6 4 4 8 13 19 20 18 15 6 8 12 17 21 22 21 23 24 26 27 28 30 30 30 29 28 30 26 28
4 6 10 9 9 5 8 5 6 8 12 11 11 13 9 8 6 5 7 11 13 14 12 12 8 9 12 16 15 16 21 24 25 26 24 25 28 27 29 29 28 25 25 26
2 4 5 7 8 15 15 13 10 6 12 9 9 9 8 7 7 6 6 9 7 11 12 8 9 11 12 14 13 17 22 23 25 25 25 28 30 28 26 27 24 23 23 21
1 5 10 11 13 16 16 12 12 7 14 7 8 8 8 7 6 6 7 8 4 13 12 6 9 11 11 7 10 16 22 24 25 27 27 28 26 28 25 24 22 22 21 20
10 11 12 13 11 9 12 8 12 14 15 11 8 10 8 7 7 6 9 10 5 10 9 8 11 8 7 6 10 17 19 22 24 25 28 27 27 30 28 29 31 26 24 24
15 15 10 13 11 16 13 17 14 15 15 10 8 9 7 6 6 4 2 5 4 3 7 8 12 10 6 5 7 15 16 19 22 23 23 24 22 20 24 26 27 26 26 28
18 15 14 14 14 14 20 23 18 14 14 13 9 7 5 5 5 5 2 3 5 6 6 8 13 12 8 5 5 14 17 19 21 22 22 22 21 20 17 20 21 23 24 26
15 15 18 20 14 14 13 18 20 15 12 7 8 7 8 5 6 4 4 6 8 7 0 7 11 11 9 8 7 9 15 17 20 21 22 21 22 21 20 20 18 19 23 25
18 16 15 18 16 13 10 8 9 7 6 5 8 8 12 7 6 4 4 4 8 9 8 4 4 4 6 8 8 9 11 14 17 19 21 22 22 21 21 21 20 18 19 20
9 8 9 11 8 5 5 6 6 7 4 3 5 7 9 12 11 8 7 8 6 7 9 8 8 3 2 6 8 9 11 11 14 17 18 20 21 20 19 19 19 20 19 17
6 6 3 3 3 4 4 4 5 5 4 4 4 4 10 11 9 9 9 8 9 10 10 9 9 7 4 2 5 8 9 8 10 14 16 17 18 17 17 18 18 19 18 18
6 4 4 5 6 8 9 9 7 6 4 2 3 5 8 5 5 7 10 12 12 12 10 7 5 4 3 1 0 2 5 7 10 12 13 13 15 15 15 14 13 12 14 15
7 7 7 7 6 6 7 8 9 9 9 4 5 6 8 9 12 12 10 9 7 8 8 7 8 8 7 7 5 5 3 3 5 7 8 9 9 10 10 10 11 12 13 14
6 8 8 8 9 7 6 9 9 6 4 4 7 10 9 11 15 15 15 9 7 7 6 7 8 9 6 5 8 9 7 7 6 5 4 3 3 3 4 6 8 10 11 13
3 3 5 6 5 8 7 7 4 1 5 8 10 9 13 14 15 13 10 6 9 9 11 10 11 11 9 9 10 7 6 7 6 5 5 4 2 2 3 4 4 5 6 8
3 3 4 6 5 5 4 2 4 7 9 12 13 16 16 13 15 16 14 11 10 10 11 13 12 11 13 12 11 11 11 9 7 5 4 4 3 3 4 4 6 8 10 10
5 6 6 6 5 5 2 1 4 8 10 13 14 13 11 11 10 9 6 10 13 13 14 13 12 12 11 12 12 11 10 10 10 8 7 6 6 6 6 6 7 7 8 9
8 8 8 9 8 6 2 2 7 10 12 13 14 13 14 13 15 17 16 14 14 15 16 14 12 11 11 13 14 14 13 12 12 11 10 8 8 7 7 6 5 6 7 7
10 10 9 8 5 3 6 8 11 12 14 15 16 15 13 11 12 13 14 13 13 14 15 12 11 12 15 15 15 15 15 15 15 13 13 13 12 11 10 8 8 6 5 6
6 6 10 12 11 11 12 11 8 9 11 12 14 15 16 15 15 15 14 15 15 15 16 15 15 15 15 14 14 14 14 13 13 14 13 13 13 12 12 10 9 8 7 6
6 6 5 3 9 14 15 14 12 10 13 15 14 12 13 13 13 14 15 17 17 17 16 16 15 14 14 13 13 13 12 13 13 12 12 13 13 12 12 11 10 9 9 9

GFSNGP_925_spd_198.txt.gz
Wind_Speed
16 16 13 20 17 12 16 17 17 21 21 20 21 20 13 13 8 7 4 5 6 6 6 11 14 14 16 20 23 26 26 28 29 28 28 30 31 30 30 31 29 24 21 19
17 9 12 22 17 12 17 19 18 18 22 24 20 15 10 10 7 6 6 6 6 7 7 8 13 14 15 15 18 24 28 30 28 26 29 31 32 31 32 32 31 27 22 22
17 4 8 15 11 14 11 14 8 13 19 13 8 10 11 9 7 7 7 7 7 7 8 14 20 20 17 17 15 21 26 25 29 30 29 27 30 32 32 34 30 26 23 21
11 5 14 4 3 6 7 11 12 8 14 14 11 7 7 4 6 7 7 7 8 6 12 21 23 20 18 17 12 18 21 23 26 28 26 28 28 27 28 29 30 26 25 27
5 9 13 14 2 2 1 8 4 8 6 4 5 3 5 7 8 9 7 7 10 18 22 25 21 18 13 10 8 13 17 19 22 24 24 26 26 29 29 27 26 24 28 32
4 5 10 2 4 6 5 10 7 6 6 6 5 3 5 4 3 7 9 13 12 18 20 21 17 9 6 7 8 15 18 20 22 24 24 25 27 31 30 31 28 27 29 29
11 11 6 1 6 4 2 5 14 11 13 8 5 4 6 7 6 7 11 11 12 13 15 15 8 5 7 7 12 12 12 14 18 21 24 25 27 29 30 29 28 27 28 26
5 7 8 3 1 2 4 3 7 15 14 16 13 12 11 12 9 8 8 8 10 9 13 12 5 4 6 9 8 9 13 16 19 21 22 25 27 27 28 28 26 25 26 25
2 4 4 1 6 7 5 9 11 11 12 15 14 11 9 7 7 8 7 9 6 5 9 11 6 2 4 3 5 11 17 19 20 21 21 23 26 26 24 26 23 21 22 21
3 5 6 10 10 12 10 12 13 9 13 12 15 19 13 10 8 7 7 9 8 6 6 11 9 4 1 1 3 11 19 20 20 23 23 23 23 24 23 22 21 20 21 20
11 15 12 15 10 8 12 10 12 10 10 12 13 18 14 11 8 6 8 10 7 10 10 3 5 3 6 4 2 8 13 18 20 22 25 24 23 25 26 26 29 27 25 24
14 14 10 14 11 12 10 17 15 14 17 19 12 13 14 8 7 7 6 3 5 7 9 14 9 7 6 4 2 8 13 17 20 22 22 21 22 19 21 22 23 23 23 26
17 19 16 14 11 14 14 17 17 17 14 16 19 11 12 8 7 8 4 2 4 7 8 9 8 9 7 3 2 4 10 13 17 19 20 20 20 19 15 16 17 20 21 20
16 11 10 14 12 14 11 14 16 15 16 14 13 13 11 6 7 9 6 2 3 5 5 1 7 6 5 3 2 4 6 9 15 18 19 20 20 19 19 19 17 18 21 21
15 16 15 16 16 15 14 9 8 7 8 11 11 8 6 7 6 7 6 3 5 7 8 5 4 3 4 5 4 4 5 7 10 14 18 20 20 19 19 19 18 17 18 20
8 8 8 9 12 6 6 6 7 9 10 11 7 5 6 9 10 8 7 5 3 5 7 8 8 5 3 3 3 3 4 4 6 8 13 16 18 18 17 17 17 18 19 20
5 4 3 3 5 5 7 8 7 8 8 6 7 3 7 9 9 8 7 8 9 9 8 8 8 7 5 3 1 1 1 3 3 5 10 13 15 16 16 16 16 17 19 19
8 8 8 9 9 9 10 9 9 9 7 10 11 1 5 5 4 7 9 10 11 10 9 7 6 5 4 4 3 2 1 1 3 5 6 8 10 12 13 13 13 14 14 14
6 7 8 9 9 8 8 9 10 12 13 13 9 5 6 9 12 13 11 9 10 7 8 7 6 7 8 6 6 6 5 3 1 3 3 4 5 6 8 8 8 8 8 9
5 3 4 6 8 7 7 11 13 12 13 12 7 5 7 10 14 13 12 9 8 6 5 6 5 5 6 9 9 10 11 11 11 11 10 9 7 6 5 4 3 3 4 6
5 5 4 4 5 10 9 12 11 8 9 5 4 7 10 13 14 14 9 6 7 7 9 9 9 9 10 9 8 9 11 12 14 12 11 9 8 7 6 4 2 1 1 1
7 4 5 7 5 6 9 10 8 4 4 6 10 13 13 12 13 14 12 10 9 10 13 14 14 14 13 13 14 13 13 13 12 11 11 10 9 8 6 4 3 2 2 4
9 9 10 8 6 6 6 6 4 1 5 6 10 12 10 10 11 9 6 9 13 14 16 16 13 12 12 14 15 16 16 15 15 14 13 12 12 10 9 7 5 5 5 5
13 15 12 11 8 5 2 1 1 3 7 9 10 12 14 14 15 16 17 14 15 16 18 16 14 12 15 17 17 18 18 17 17 16 15 14 13 12 11 10 9 8 7 6
13 12 10 7 4 4 5 6 7 10 13 12 12 12 11 11 11 15 15 15 13 16 18 16 15 15 17 18 18 18 18 18 17 16 16 16 15 14 13 11 11 10 9 8
13 9 10 13 11 10 10 11 8 9 11 11 12 12 14 14 15 16 16 16 17 17 18 17 17 16 17 17 17 17 16 15 15 15 15 14 14 14 13 13 12 11 11 10
12 12 9 9 9 12 14 15 12 10 12 14 14 11 13 14 14 16 17 18 18 18 18 17 17 16 16 16 16 16 16 16 15 15 15 15 14 13 12 12 11 11 10 10